Simultaneous Nadir Overpasses (SNOs) Predictions

Prediction of SNOs between AQUA and METOP-A Satellite Orbit:

Table of predicted SNOs for the next 14.0 days since TLE Epoch: 5/15/2020
Index Date (AQUA) Time (AQUA) Lat,Lon (AQUA) SZA (AQUA ) Date (METOP-A) Time (METOP-A) Lat,Lon (METOP-A) SZA (METOP-A ) Distance(km) Time Diff (sec)
1 05/16/2020 03:16:17 76.19, 119.16 57.20 05/16/2020 03:15:32 76.20, 119.23 57.22 2.52 45
2 05/16/2020 04:05:44 -76.25, -73.40 122.74 05/16/2020 04:06:13 -76.24, -73.32 122.76 2.37 29
3 05/18/2020 22:50:33 76.22,-174.52 56.62 05/18/2020 22:49:54 76.21,-174.39 56.61 3.62 39
4 05/18/2020 23:39:59 -76.23, -6.90 123.38 05/18/2020 23:40:35 -76.25, -6.93 123.37 2.34 36
5 05/21/2020 18:24:47 76.22,-108.06 56.04 05/21/2020 18:24:15 76.22,-108.02 56.04 1.09 32
6 05/21/2020 19:14:14 -76.26, 59.43 123.92 05/21/2020 19:14:56 -76.26, 59.45 123.93 0.72 42
7 05/24/2020 13:59:02 76.21, -41.61 55.50 05/24/2020 13:58:37 76.22, -41.64 55.53 1.66 25
8 05/24/2020 14:48:29 -76.25, 125.90 124.46 05/24/2020 14:49:18 -76.27, 125.83 124.45 2.55 49
9 05/27/2020 09:33:17 76.21, 24.83 55.03 05/27/2020 09:32:59 76.23, 24.73 55.05 3.38 18




NCC Satellite Simultaneous Nadir Overpasses (SNOs) Prediction Service
